Location: Northeast Philadelphia Airport
(40.0833°N, 75.0000°W)
Time: 01:00:11
(UTC-04:00)

N. Korean satellite - Visible Passes

Search period start: 18 October 2018 00:00
Search period end: 28 October 2018 00:00
Orbit: 459 x 510 km, 97.2° (Epoch: 17 October)

Date Brightness Start Highest point End Pass type
(mag) Time Alt. Az. Time Alt. Az. Time Alt. Az.
18 Oct 9.3 06:44:37 10° NE 06:47:44 26° E 06:50:47 10° SSE visible
18 Oct 7.7 18:52:20 10° S 18:55:57 52° W 18:59:38 10° NNW visible
19 Oct 10.3 06:21:22 10° ENE 06:23:08 13° E 06:24:53 10° ESE visible
20 Oct 10.1 19:38:40 10° SW 19:40:46 14° W 19:42:54 10° WNW visible
21 Oct 9.0 19:12:57 10° SSW 19:16:12 28° W 19:19:29 10° NW visible
22 Oct 9.5 06:40:31 10° NE 06:43:27 23° E 06:46:20 10° SSE visible
22 Oct 7.4 18:48:02 10° S 18:51:43 59° W 18:55:25 10° NNW visible
23 Oct 10.4 06:17:36 10° ENE 06:18:50 11° E 06:20:03 10° ESE visible
24 Oct 10.0 19:34:05 10° SW 19:36:28 16° W 19:38:52 10° NW visible
25 Oct 8.7 19:08:33 10° SSW 19:11:54 31° W 19:15:17 10° NNW visible
26 Oct 9.7 06:36:23 10° NE 06:39:07 20° E 06:41:47 10° SE visible
26 Oct 7.1 18:43:42 10° S 18:47:25 67° W 18:51:09 10° NNW visible
